TimeEDT,TemperatureF,Dew PointF,Humidity,Sea Level PressureIn,VisibilityMPH,Wind Direction,Wind SpeedMPH,Gust SpeedMPH,PrecipitationIn,Events,Conditions,WindDirDegrees,DateUTC
12:16 AM,77.0,75.2,94,29.94,5.0,Calm,Calm,-,N/A,,Clear,0,2013-07-22 04:16:00
12:35 AM,77.0,75.2,94,29.94,5.0,Calm,Calm,-,N/A,,Clear,0,2013-07-22 04:35:00
12:55 AM,77.0,75.2,94,29.94,7.0,Calm,Calm,-,N/A,,Clear,0,2013-07-22 04:55:00
1:15 AM,77.0,75.2,94,29.94,7.0,Calm,Calm,-,N/A,,Clear,0,2013-07-22 05:15:00
1:35 AM,77.0,73.4,89,29.94,7.0,Calm,Calm,-,N/A,,Clear,0,2013-07-22 05:35:00
1:55 AM,77.0,73.4,89,29.94,7.0,Calm,Calm,-,N/A,,Clear,0,2013-07-22 05:55:00
2:15 AM,77.0,73.4,89,29.93,5.0,Calm,Calm,-,N/A,,Clear,0,2013-07-22 06:15:00
2:35 AM,77.0,73.4,89,29.93,4.0,Calm,Calm,-,N/A,,Clear,0,2013-07-22 06:35:00
2:55 AM,75.2,73.4,94,29.93,3.0,Calm,Calm,-,N/A,,Clear,0,2013-07-22 06:55:00
3:16 AM,75.2,73.4,94,29.93,4.0,Calm,Calm,-,N/A,,Clear,0,2013-07-22 07:16:00
3:35 AM,75.2,73.4,94,29.93,3.0,Calm,Calm,-,N/A,,Clear,0,2013-07-22 07:35:00
3:55 AM,75.2,73.4,94,29.93,3.0,Calm,Calm,-,N/A,,Clear,0,2013-07-22 07:55:00
4:15 AM,75.2,73.4,94,29.92,2.5,Calm,Calm,-,N/A,,Clear,0,2013-07-22 08:15:00
4:35 AM,75.2,73.4,94,29.91,2.0,Calm,Calm,-,N/A,,Clear,0,2013-07-22 08:35:00
4:55 AM,75.2,73.4,94,29.91,4.0,Calm,Calm,-,N/A,,Clear,0,2013-07-22 08:55:00
5:15 AM,75.2,73.4,94,29.92,1.2,Calm,Calm,-,N/A,,Mist,0,2013-07-22 09:15:00
5:36 AM,75.2,73.4,94,29.92,3.0,Calm,Calm,-,N/A,,Clear,0,2013-07-22 09:36:00
5:55 AM,75.2,73.4,94,29.92,4.0,Calm,Calm,-,N/A,,Clear,0,2013-07-22 09:55:00
6:15 AM,75.2,73.4,94,29.92,2.5,Calm,Calm,-,N/A,,Clear,0,2013-07-22 10:15:00
6:35 AM,75.2,73.4,94,29.91,4.0,Calm,Calm,-,N/A,,Clear,0,2013-07-22 10:35:00
6:55 AM,75.2,73.4,94,29.92,5.0,Calm,Calm,-,N/A,,Clear,0,2013-07-22 10:55:00
7:15 AM,77.0,75.2,94,29.92,5.0,Calm,Calm,-,N/A,,Clear,0,2013-07-22 11:15:00
7:35 AM,78.8,75.2,89,29.92,5.0,Calm,Calm,-,N/A,,Clear,0,2013-07-22 11:35:00
7:55 AM,80.6,77.0,89,29.93,7.0,Calm,Calm,-,N/A,,Clear,0,2013-07-22 11:55:00
8:16 AM,80.6,77.0,89,29.94,10.0,Calm,Calm,-,N/A,,Clear,0,2013-07-22 12:16:00
8:36 AM,80.6,77.0,89,29.94,7.0,South,3.5,-,N/A,,Scattered Clouds,170,2013-07-22 12:36:00
8:55 AM,80.6,77.0,89,29.94,7.0,Calm,Calm,-,N/A,,Scattered Clouds,0,2013-07-22 12:55:00
9:15 AM,82.4,77.0,84,29.94,10.0,Calm,Calm,-,N/A,,Scattered Clouds,0,2013-07-22 13:15:00
9:35 AM,82.4,77.0,84,29.94,10.0,Calm,Calm,-,N/A,,Scattered Clouds,0,2013-07-22 13:35:00
9:55 AM,84.2,77.0,79,29.93,10.0,Calm,Calm,-,N/A,,Scattered Clouds,0,2013-07-22 13:55:00
10:15 AM,84.2,75.2,74,29.93,10.0,Calm,Calm,-,N/A,,Clear,0,2013-07-22 14:15:00
10:35 AM,84.2,77.0,79,29.93,10.0,SSW,3.5,-,N/A,,Clear,200,2013-07-22 14:35:00
10:55 AM,86.0,75.2,70,29.93,10.0,Calm,Calm,-,N/A,,Scattered Clouds,0,2013-07-22 14:55:00
11:15 AM,87.8,75.2,66,29.93,10.0,South,4.6,-,N/A,,Scattered Clouds,180,2013-07-22 15:15:00
11:35 AM,87.8,75.2,66,29.92,10.0,SSE,4.6,-,N/A,,Scattered Clouds,160,2013-07-22 15:35:00
11:55 AM,87.8,75.2,66,29.92,10.0,Calm,Calm,-,N/A,,Scattered Clouds,0,2013-07-22 15:55:00
12:15 PM,89.6,75.2,62,29.92,10.0,Calm,Calm,-,N/A,,Clear,0,2013-07-22 16:15:00
12:35 PM,87.8,75.2,66,29.91,10.0,Calm,Calm,-,N/A,,Scattered Clouds,0,2013-07-22 16:35:00
12:55 PM,86.0,75.2,70,29.91,10.0,South,4.6,-,N/A,,Mostly Cloudy,170,2013-07-22 16:55:00
1:15 PM,86.0,75.2,70,29.91,10.0,South,5.8,-,N/A,,Scattered Clouds,170,2013-07-22 17:15:00
1:35 PM,84.2,75.2,74,29.91,10.0,South,4.6,-,N/A,,Clear,170,2013-07-22 17:35:00
1:55 PM,82.4,78.8,89,29.90,3.0,SSE,5.8,-,0.10,Rain,Light Rain,160,2013-07-22 17:55:00
2:15 PM,82.4,78.8,89,29.89,10.0,South,4.6,-,N/A,,Scattered Clouds,170,2013-07-22 18:15:00
2:35 PM,84.2,75.2,74,29.89,10.0,SSE,5.8,-,N/A,,Clear,160,2013-07-22 18:35:00
2:55 PM,86.0,73.4,66,29.89,10.0,South,6.9,-,N/A,,Clear,170,2013-07-22 18:55:00
3:15 PM,87.8,75.2,66,29.88,10.0,SSE,5.8,-,N/A,,Clear,160,2013-07-22 19:15:00
3:35 PM,86.0,77.0,74,29.87,7.0,South,6.9,-,N/A,,Clear,180,2013-07-22 19:35:00
3:55 PM,87.8,77.0,70,29.86,10.0,SSE,4.6,-,N/A,,Clear,150,2013-07-22 19:55:00
4:15 PM,87.8,77.0,70,29.85,10.0,SSE,6.9,-,N/A,,Clear,150,2013-07-22 20:15:00
4:35 PM,86.0,75.2,70,29.85,10.0,South,10.4,-,N/A,,Clear,180,2013-07-22 20:35:00
4:55 PM,84.2,75.2,74,29.85,10.0,South,6.9,-,N/A,,Clear,170,2013-07-22 20:55:00
5:15 PM,82.4,75.2,79,29.83,10.0,SSE,4.6,-,N/A,,Clear,150,2013-07-22 21:15:00
5:35 PM,82.4,75.2,79,29.83,10.0,South,4.6,-,N/A,,Clear,170,2013-07-22 21:35:00
5:55 PM,82.4,77.0,84,29.83,10.0,South,3.5,-,N/A,,Clear,190,2013-07-22 21:55:00
6:15 PM,82.4,77.0,84,29.82,10.0,SSE,3.5,-,N/A,,Clear,160,2013-07-22 22:15:00
6:35 PM,82.4,77.0,84,29.82,10.0,SSE,4.6,-,N/A,,Clear,150,2013-07-22 22:35:00
6:55 PM,82.4,75.2,79,29.81,10.0,SSE,4.6,-,N/A,,Clear,160,2013-07-22 22:55:00
7:15 PM,82.4,75.2,79,29.82,10.0,SSE,5.8,-,N/A,,Clear,160,2013-07-22 23:15:00
7:35 PM,82.4,75.2,79,29.82,10.0,SSE,3.5,-,N/A,,Clear,160,2013-07-22 23:35:00
7:55 PM,82.4,77.0,84,29.83,10.0,South,3.5,-,N/A,Rain,Light Rain,180,2013-07-22 23:55:00
8:15 PM,80.6,77.0,89,29.84,10.0,SSE,3.5,-,N/A,,Clear,160,2013-07-23 00:15:00
8:35 PM,80.6,77.0,89,29.84,10.0,Calm,Calm,-,N/A,,Clear,0,2013-07-23 00:35:00
8:55 PM,80.6,77.0,89,29.83,7.0,South,4.6,-,N/A,,Clear,170,2013-07-23 00:55:00
9:15 PM,80.6,75.2,84,29.83,10.0,South,3.5,-,N/A,,Scattered Clouds,190,2013-07-23 01:15:00
9:35 PM,80.6,75.2,84,29.82,10.0,SSW,3.5,-,N/A,Rain,Light Rain,210,2013-07-23 01:35:00
9:55 PM,78.8,75.2,89,29.82,10.0,South,3.5,-,N/A,Rain,Light Rain,190,2013-07-23 01:55:00
10:15 PM,78.8,75.2,89,29.82,10.0,South,4.6,-,N/A,,Clear,180,2013-07-23 02:15:00
10:35 PM,78.8,75.2,89,29.81,10.0,Calm,Calm,-,N/A,,Clear,0,2013-07-23 02:35:00
10:55 PM,78.8,75.2,89,29.81,10.0,Calm,Calm,-,N/A,,Clear,0,2013-07-23 02:55:00
11:15 PM,78.8,75.2,89,29.82,10.0,South,5.8,-,N/A,,Clear,180,2013-07-23 03:15:00
11:35 PM,78.8,75.2,89,29.82,10.0,South,3.5,-,N/A,,Clear,170,2013-07-23 03:35:00
11:55 PM,78.8,75.2,89,29.81,7.0,South,3.5,-,N/A,,Clear,170,2013-07-23 03:55:00